GW3653 Weather Reports


time (UTC)temp
C
wind
direction
speed
KPH
gust
KPH
rain 1hr
cm
rain 24hr
cm
rain mn
cm
humidity
%
barometer
mb
20260506155519 13 135 1.6 6.4 0.05 0.15 0.15 94 1033.9
20260506154519 13 90 1.6 4.8 0.05 0.15 0.15 93 1033.8
20260506153519 13 113 1.6 6.4 0.05 0.15 0.15 93 1033.8
20260506152519 13 0.0 3.2 0.05 0.15 0.15 93 1033.9
20260506151519 14 113 3.2 14.5 0.08 0.15 0.15 92 1033.9
20260506150519 14 0.0 0.0 0.10 0.15 0.15 92 1034.0
20260506145519 14 0.0 1.6 0.08 0.10 0.10 91 1034.0
20260506144519 14 0.0 0.0 0.08 0.10 0.10 91 1034.0
20260506143539 14 0.0 0.0 0.10 0.10 0.10 91 1034.2
20260506142519 14 0.0 0.0 0.10 0.10 0.10 91 1034.2
20260506141519 14 0.0 1.6 0.05 0.05 0.05 90 1034.2
20260506140519 14 0.0 3.2 0.05 0.05 0.05 90 1034.2
20260506135519 14 0.0 1.6 0.03 0.03 0.03 89 1034.2
20260506134520 14 113 1.6 9.7 0.03 0.03 0.03 89 1034.2
20260506133539 14 0.0 1.6 0.00 0.00 0.00 89 1034.2
20260506132519 13 0.0 0.0 0.00 0.00 0.00 88 1034.2
20260506131519 14 0.0 3.2 0.00 0.00 0.00 88 1034.2
20260506130519 14 0.0 0.0 0.00 0.00 0.00 88 1034.1
20260506125539 14 0.0 0.0 0.00 0.00 0.00 88 1034.2
20260506124518 14 0.0 0.0 0.00 0.00 0.00 88 1034.2
20260506123519 14 0.0 1.6 0.00 0.00 0.00 88 1034.1
20260506122519 14 0.0 0.0 0.00 0.00 0.00 87 1034.0
20260506121519 14 0.0 0.0 0.00 0.00 0.00 88 1033.9
20260506120519 14 0.0 1.6 0.00 0.00 0.00 88 1033.9
20260506115518 13 0.0 0.0 0.00 0.00 0.00 88 1033.7
20260506114519 13 0.0 0.0 0.00 0.00 0.00 87 1033.7
20260506113519 14 0.0 0.0 0.00 0.00 0.00 87 1033.6
20260506112519 14 0.0 0.0 0.00 0.00 0.00 87 1033.5
20260506111519 14 0.0 0.0 0.00 0.00 0.00 86 1033.6
20260506110538 14 0.0 0.0 0.00 0.00 0.00 86 1033.5
20260506105518 14 0.0 0.0 0.00 0.00 0.00 85 1033.4
20260506104519 14 0.0 1.6 0.00 0.00 0.00 85 1033.5
20260506103518 14 0.0 0.0 0.00 0.00 0.00 84 1033.5
20260506102518 15 0.0 0.0 0.00 0.00 0.00 84 1033.4
20260506101518 15 0.0 1.6 0.00 0.00 0.00 84 1033.4
20260506100518 15 0.0 6.4 0.00 0.00 0.00 84 1033.4
20260506095518 15 0.0 3.2 0.00 0.00 0.00 83 1033.2
20260506094538 15 0.0 1.6 0.00 0.00 0.00 83 1033.3
20260506093518 15 0.0 1.6 0.00 0.00 0.00 83 1033.2
20260506092518 15 0.0 6.4 0.00 0.00 0.00 82 1033.1
20260506091519 16 113 1.6 8.0 0.00 0.00 0.00 82 1032.9
20260506090538 16 0.0 4.8 0.00 0.00 0.00 82 1032.9
20260506085538 16 90 1.6 4.8 0.00 0.00 0.00 81 1032.8
20260506084518 16 113 1.6 4.8 0.00 0.00 0.00 80 1032.7
20260506083518 16 113 1.6 8.0 0.00 0.00 0.00 79 1032.6
20260506082518 16 113 1.6 6.4 0.00 0.00 0.00 79 1032.6
20260506081518 17 113 1.6 6.4 0.00 0.00 0.00 78 1032.6
20260506080518 17 113 1.6 6.4 0.00 0.00 0.00 78 1032.6
20260506073518 17 0.0 3.2 0.00 0.00 0.00 77 1032.4
20260506072518 17 113 1.6 6.4 0.00 0.00 0.00 77 1032.5
20260506071518 17 113 1.6 8.0 0.00 0.00 0.00 77 1032.4
20260506070518 16 90 1.6 6.4 0.00 0.00 0.00 77 1032.3
20260506061518 17 113 1.6 4.8 0.00 0.00 0.00 77 1032.2
20260506060518 17 113 1.6 6.4 0.00 0.00 0.00 78 1032.2
20260506050518 16 0.0 6.4 0.00 0.00 0.00 79 1032.4
20260506044518 17 113 1.6 4.8 0.00 0.00 0.00 78 1032.6
20260506043518 17 113 1.6 3.2 0.00 0.00 0.00 76 1032.6
20260506042518 17 113 1.6 4.8 0.00 0.00 0.00 77 1032.7
20260506041517 17 0.0 3.2 0.00 0.00 0.00 77 1032.7
20260506040517 16 113 1.6 4.8 0.00 0.00 0.00 77 1032.9
20260506035538 17 113 1.6 4.8 0.00 0.00 0.00 76 1032.9
20260506034518 16 113 1.6 6.4 0.00 0.00 0.00 76 1033.0
20260506033518 17 113 1.6 4.8 0.00 0.00 0.00 76 1033.0
20260506032517 17 113 1.6 6.4 0.00 0.00 0.00 76 1033.1
20260506031518 17 0.0 3.2 0.00 0.00 0.00 76 1033.2
20260506030517 17 0.0 1.6 0.00 0.00 0.00 76 1033.1
20260506025517 17 0.0 3.2 0.00 0.00 0.00 75 1033.2
20260506024517 17 0.0 3.2 0.00 0.00 0.00 74 1033.1
20260506023518 17 0.0 1.6 0.00 0.00 0.00 73 1033.1
20260506022518 17 0.0 1.6 0.00 0.00 0.00 74 1033.2
20260506021517 16 0.0 1.6 0.00 0.00 0.00 75 1033.2
20260506020518 16 0.0 0.0 0.00 0.00 0.00 76 1033.2
20260506015520 16 0.0 0.0 0.00 0.00 0.00 76 1033.4
20260506014519 15 0.0 0.0 0.00 0.00 0.00 76 1033.4
20260506013519 15 0.0 0.0 0.00 0.00 0.00 76 1033.4
20260506012557 15 0.0 0.0 0.00 0.00 0.00 77 1033.5
20260506011520 15 0.0 0.0 0.00 0.00 0.00 78 1033.4
20260506010519 15 0.0 0.0 0.00 0.00 0.00 79 1033.5
20260506005519 15 0.0 0.0 0.00 0.00 0.00 80 1033.5
20260506004519 14 0.0 0.0 0.00 0.00 0.00 82 1033.3
20260506003519 13 0.0 0.0 0.00 0.00 0.00 83 1033.2
20260506002518 13 0.0 0.0 0.00 0.00 0.00 85 1033.2
20260506001539 13 0.0 0.0 0.00 0.00 0.00 86 1033.0
20260506000539 13 0.0 0.0 0.00 0.00 0.00 86 1032.8
20260505235519 13 0.0 0.0 0.00 0.00 0.00 86 1032.7
20260505234519 13 0.0 0.0 0.00 0.00 0.00 86 1032.6
20260505233519 12 0.0 0.0 0.00 0.00 0.00 85 1032.4
20260505232519 12 0.0 0.0 0.00 0.00 0.00 85 1032.4
20260505231539 12 0.0 0.0 0.00 0.00 0.00 84 1032.3
20260505230519 12 0.0 0.0 0.00 0.00 0.00 84 1032.2
20260505225519 12 0.0 0.0 0.00 0.00 0.00 84 1032.1
20260505224519 12 0.0 0.0 0.00 0.00 0.00 84 1031.8
20260505223519 12 0.0 0.0 0.00 0.00 0.00 84 1031.7
20260505222519 12 0.0 0.0 0.00 0.00 0.00 84 1031.7
20260505221519 12 0.0 0.0 0.00 0.00 0.00 84 1031.7
20260505220519 12 0.0 0.0 0.00 0.00 0.00 83 1031.6
20260505215539 12 0.0 0.0 0.00 0.00 0.00 82 1031.6
20260505214519 12 0.0 0.0 0.00 0.00 0.00 81 1031.6
20260505213519 12 0.0 0.0 0.00 0.00 0.00 81 1031.5
20260505212519 12 0.0 0.0 0.00 0.00 0.00 81 1031.5
20260505211519 12 0.0 0.0 0.00 0.00 0.00 81 1031.4
20260505210519 12 0.0 0.0 0.00 0.00 0.00 81 1031.3
20260505205519 12 0.0 1.6 0.00 0.00 0.00 81 1031.3
20260505204518 12 0.0 0.0 0.00 0.00 0.00 80 1031.2
20260505203519 12 0.0 0.0 0.00 0.00 0.00 80 1031.2
20260505202519 12 0.0 0.0 0.00 0.00 0.00 79 1031.1
20260505201519 12 0.0 0.0 0.00 0.00 0.00 78 1031.1
20260505200539 12 0.0 0.0 0.00 0.00 0.00 78 1031.0
20260505195519 13 0.0 1.6 0.00 0.00 0.00 78 1030.9
20260505194519 13 0.0 0.0 0.00 0.00 0.00 77 1030.9
20260505193519 13 0.0 0.0 0.00 0.00 0.00 77 1030.8
20260505192518 13 0.0 0.0 0.00 0.00 0.00 76 1030.8
20260505191519 13 0.0 1.6 0.00 0.00 0.00 77 1030.8
20260505190518 13 0.0 3.2 0.00 0.00 0.00 78 1030.8
20260505185538 13 0.0 1.6 0.00 0.00 0.00 79 1030.8
20260505184518 13 0.0 1.6 0.00 0.00 0.00 78 1030.8
20260505183518 13 0.0 1.6 0.00 0.00 0.00 77 1030.7
20260505182518 13 0.0 1.6 0.00 0.00 0.00 76 1031.0
20260505181519 13 0.0 0.0 0.00 0.00 0.00 76 1031.1
20260505180518 13 0.0 0.0 0.00 0.00 0.00 76 1031.0
20260505175538 13 0.0 0.0 0.00 0.00 0.00 76 1031.0
20260505174538 13 0.0 3.2 0.00 0.00 0.00 77 1031.0
20260505173518 14 0.0 4.8 0.00 0.00 0.00 76 1031.0
20260505172518 14 0.0 1.6 0.00 0.00 0.00 76 1030.9
20260505171706 14 90 1.6 3.2 0.00 0.00 0.00 76 1030.9
20260505170518 14 0.0 4.8 0.00 0.00 0.00 75 1030.8
20260505165518 14 90 1.6 6.4 0.00 0.00 0.00 76 1030.7
20260505164538 14 0.0 0.0 0.00 0.00 0.00 78 1030.8
20260505163538 13 0.0 1.6 0.00 0.00 0.00 78 1030.8
20260505162518 14 0.0 3.2 0.00 0.00 0.00 78 1030.8
20260505161518 14 0.0 4.8 0.00 0.00 0.00 79 1030.8
20260505160518 14 0.0 1.6 0.00 0.00 0.00 79 1030.8